FLOCK 4P-8 (44815 NORAD) Tracking and Keplerian Element Data

This shows tracking and keplerian element data for the satellite.

Feedback or suggestion? Click here.




ElementValue
Catalog44815
NameFLOCK 4P-8
Epoch Orbit779
Epoch Day17.49900156
Epoch Year2020
RAAN79.3575
Inclination97.5177
Eccentricity0.0013043
Argument of Perigee64.9337
Mean Anonmoly295.325
Mean Motion15.19694349
Decay Rate5.36E-06
L11 44815U 19081M 20017.49900156 .00000536 00000-0 28347-4 0 9997
L22 44815 97.5177 79.3575 0013043 64.9337 295.3250 15.19694349 7799

Live tracking and technical data element details for FLOCK 4P-8 (NORAD 44815). FLOCK 4P-8 can be tracked NOW for your location showing map with azimuth and elevation plus other details from your city location.

Track the satellite on the map from your city or location and see movement details for azimuth, elevation, latitude, longitude, range, height, and movement on the map or in text.







IsCatalogInMostPopularTable: catalog: 44815, numindb: 11
Update: records affected: 1



GetName: 44815 FLOCK 4P-8

Hit Count: updated at: Sat, 18 Jan 2020 17:10:04 GMT